Regional Weather Roundup
Issued by NWS Albany, NY

Home | Current Version | Previous Version | Graphics & Text | Print | Product List | Glossary Off
Versions: 1 2 3 4 5 6 7 8 9 10 11 12 13 14 15 16 17 18 19 20 21

000
ASUS41 KALY 300910
RWRALY

NEW YORK STATE HOURLY WEATHER ROUNDUP
NATIONAL WEATHER SERVICE ALBANY NY
500 AM EDT THU OCT 30 2014

NOTE: "FAIR" INDICATES FEW OR NO CLOUDS BELOW 12,000 FEET WITH NO
SIGNIFICANT WEATHER AND/OR NO OBSTRUCTIONS TO VISIBILITY.

NYZ032-033-038>043-046>054-057>066-NYZ062>081-301000-
EAST


CITY           SKY/WX    TMP DP  RH WIND       PRES   REMARKS
ALBANY         CLOUDY    48  40  73 W7        29.93R
GLENS FALLS    CLOUDY    49  37  63 W3        29.89S
POUGHKEEPSIE   CLOUDY    41  39  93 CALM      29.93S
NEWBURGH       PTCLDY    45  45 100 W6        29.95S
MONTGOMERY     LGT RAIN  40  39  97 SW3       29.94R
WHITE PLAINS   CLEAR     42  41  96 NW6       29.93S
ISLIP          CLEAR     46  44  93 CALM      29.92S
NEW YORK CITY  PTCLDY    52  46  80 NW8       29.94S
CENTRAL PARK   CLEAR     50  44  80 VRB5      29.97R
$$

NYZ005>009-017-018-044>046-055-056-301000-
CENTRAL


CITY           SKY/WX    TMP DP  RH WIND       PRES   REMARKS
FULTON         CLOUDY    45  41  86 SW5       29.95S
SYRACUSE       LGT RAIN  45  39  79 W12       29.95F
ROME           MOCLDY    44  40  85 W7        29.95S
ELMIRA         MOCLDY    43  39  86 W3        29.98R
BINGHAMTON     CLOUDY    43  35  73 NW8       29.94S
MONTICELLO     CLOUDY    43  41  93 W6        29.94S
$$

NYZ026>034-041>043-301000-
NORTH


CITY           SKY/WX    TMP DP  RH WIND       PRES   REMARKS
WATERTOWN      CLOUDY    46  37  71 W8        29.94R
FORT DRUM      NOT AVBL
MASSENA        CLOUDY    45  37  73 NW13      29.92R
SARANAC LAKE   RAIN      39  37  92 VRB3      29.85S FOG
PLATTSBURGH    CLOUDY    47  40  76 W3        29.87R
$$

NYZ001>004-010>016-019>021-301000-
WEST


CITY           SKY/WX    TMP DP  RH WIND       PRES   REMARKS
NIAGARA FALLS  CLEAR     40  36  86 MISG      30.01R
BUFFALO        PTCLDY    39  35  86 SW6       30.01R WCI  35
DUNKIRK        CLOUDY    45  37  73 NW7       30.03R
JAMESTOWN      MOCLDY    39  36  87 NW6       30.00S WCI  35
WELLSVILLE     CLOUDY    40  36  86 NW12      29.99R WCI  33
ROCHESTER      CLOUDY    44  38  79 W10       29.99R
PENN YAN       CLOUDY    44  38  79 SW7       29.98S
$$

             KEY
       WCI = WIND CHILL INDEX
       VSB = VISIBILITY
       HX  = HEAT INDEX
$$



USA.gov is the U.S. government's official web portal to all federal, state and local government web resources and services.